Wind_Speed
26 30 33 31 34 39 40 42 43 48 40 41 44 45 44 46 33 36 38 43 33 34 36 30 35 33 30 30 33 34 35 31 29 30 31 30 27 23 21 23 24 24 22 20
35 41 35 28 27 27 30 40 48 56 47 37 43 40 37 35 36 36 27 37 42 32 32 40 37 40 39 42 40 39 39 38 34 30 32 32 32 28 27 24 23 23 25 25
27 34 34 34 36 37 35 34 39 43 38 36 36 41 31 32 28 36 32 26 33 43 38 36 39 41 46 45 43 42 41 41 41 34 37 37 33 32 31 29 29 24 25 27
22 28 24 17 25 22 34 29 31 30 24 28 28 14 30 29 23 29 33 33 29 35 42 39 36 44 48 46 47 44 42 42 45 43 41 38 38 34 30 31 26 25 29 30
24 26 25 28 26 20 32 19 18 26 29 25 28 18 23 15 12 13 28 31 29 28 34 37 37 32 49 53 53 52 44 43 44 45 43 40 39 35 32 32 25 26 28 30
19 14 13 8 6 9 15 19 20 23 25 10 28 19 17 14 12 19 18 28 31 27 27 31 29 34 45 47 45 48 47 46 45 45 42 40 41 37 32 35 31 28 27 26
15 14 12 10 15 15 15 18 5 3 3 5 8 17 23 11 12 15 18 26 33 34 30 31 33 35 38 42 42 42 43 42 43 44 44 40 40 38 39 34 34 29 29 28
13 20 15 12 17 17 20 18 7 3 1 3 11 5 2 11 15 14 18 24 32 34 36 32 32 32 35 33 31 34 36 39 40 41 43 43 40 41 40 40 38 33 30 27
11 14 22 15 8 10 5 7 16 13 18 3 5 12 14 9 13 9 17 22 29 30 34 32 31 26 28 27 27 28 29 31 33 34 38 39 40 40 41 41 42 40 39 38
11 15 14 13 10 10 10 13 5 2 3 4 2 9 12 11 18 21 16 26 24 29 30 26 29 29 31 32 30 32 32 34 38 39 40 40 40 41 41 41 42 45 43 38
14 9 14 12 11 15 10 9 5 7 4 2 2 4 12 9 14 21 20 17 24 20 26 25 21 22 23 34 40 41 42 45 46 47 52 50 48 49 50 51 46 46 42 41
8 10 13 21 17 17 18 16 13 8 0 4 5 6 7 11 19 18 20 13 13 14 13 14 15 21 18 27 34 40 43 44 45 46 48 52 51 46 45 38 40 40 36 36
14 7 11 12 6 13 19 20 13 10 8 8 1 5 5 14 18 18 21 20 13 14 10 9 5 5 10 18 22 25 28 29 26 29 26 19 23 29 33 33 31 33 35 35
10 10 11 14 25 26 19 8 13 11 3 20 15 16 9 16 18 20 24 26 25 26 26 22 15 8 6 5 7 11 13 17 15 14 16 20 21 24 30 28 28 31 32 36
14 10 21 25 22 29 30 14 10 14 13 12 17 17 13 16 16 19 21 23 22 23 24 23 21 22 18 14 9 6 10 17 16 11 15 18 20 20 24 29 34 33 33 36
13 10 3 13 18 37 37 34 40 33 22 20 19 18 14 13 12 13 16 18 20 22 22 23 22 22 21 24 21 12 6 8 18 18 20 23 22 21 19 28 33 29 36 41
11 16 10 7 13 8 25 29 26 26 21 17 19 14 10 8 8 10 12 16 17 18 19 19 18 19 21 21 23 24 19 13 7 9 18 16 20 20 23 23 27 25 32 35
12 13 5 3 4 5 6 7 19 18 17 17 15 12 8 7 8 8 9 11 13 15 17 17 18 19 18 20 20 21 23 24 22 17 14 8 14 22 24 22 22 25 26 43
9 10 4 3 10 11 7 8 15 18 17 10 6 4 5 6 8 7 9 10 11 13 14 15 15 16 17 18 18 19 19 20 22 23 20 17 11 9 13 18 21 24 32 40
10 13 3 4 4 2 8 1 11 13 12 10 5 5 4 5 6 11 12 12 12 12 13 14 14 15 16 14 15 16 16 17 17 18 20 24 21 17 14 8 10 16 26 27
5 6 13 10 5 4 6 6 10 1 3 8 7 6 7 6 9 11 10 10 10 10 11 12 12 12 13 13 13 14 15 14 14 15 16 16 17 19 19 16 13 11 11 14
10 6 5 4 4 2 7 9 3 11 8 5 6 7 7 9 11 11 11 11 11 10 11 10 10 10 11 12 12 12 13 14 14 15 15 14 14 13 12 13 16 14 11 11
4 7 5 4 6 8 11 11 10 9 6 5 5 7 9 9 8 9 9 9 9 10 10 11 11 11 11 11 11 12 12 12 13 13 13 13 12 12 11 11 10 8 7 10
5 6 4 3 7 7 8 10 8 5 3 4 6 7 7 8 8 7 8 8 10 10 11 11 12 12 12 13 13 13 13 14 14 14 14 14 14 13 13 12 11 10 9 9
3 1 5 6 6 7 7 6 5 5 4 5 5 7 9 9 9 9 10 11 11 12 13 13 14 14 15 15 15 15 15 16 16 17 16 16 16 16 15 14 14 13 13 11
3 3 3 3 4 6 6 5 3 4 5 5 6 8 10 12 13 13 13 13 14 15 15 16 16 17 18 18 19 20 20 20 19 18 18 19 20 20 20 19 18 17 16 15
Wind_Direction
303 292 279 285 260 261 270 277 278 278 286 285 278 282 272 267 276 252 256 244 243 238 233 235 233 234 235 236 238 243 250 243 241 242 234 237 240 248 249 251 256 258 264 270
304 290 290 289 266 264 275 275 269 272 273 275 291 279 274 260 273 243 243 246 242 231 239 231 217 223 225 229 237 241 244 244 235 240 244 242 242 242 247 255 257 256 261 267
300 297 293 280 277 280 273 274 273 277 286 278 286 290 265 256 269 231 241 246 247 237 231 237 240 224 226 228 232 237 240 242 235 236 237 238 236 234 238 242 256 266 270 272
317 328 306 290 276 271 277 296 284 276 280 277 277 295 278 272 277 240 249 248 247 238 236 236 231 235 236 233 232 240 238 236 233 231 232 237 240 239 243 247 262 262 268 272
328 317 315 282 282 278 282 291 281 271 269 282 275 266 278 287 269 230 234 238 244 241 237 236 236 228 226 231 232 236 235 230 232 230 230 235 234 238 236 241 250 258 267 270
321 328 307 305 333 293 291 282 293 284 270 247 257 231 288 285 266 234 231 223 231 227 222 229 222 220 217 228 242 238 239 234 235 237 235 229 234 232 237 238 243 253 262 271
339 353 319 291 294 298 288 268 311 280 216 239 252 214 243 282 273 245 223 204 202 214 212 219 221 221 228 231 234 235 236 237 239 236 237 236 243 239 236 240 245 248 257 271
323 324 321 296 299 295 295 276 217 258 251 271 199 224 75 234 235 227 189 193 192 190 202 193 196 198 203 204 211 219 217 222 224 229 236 243 247 250 249 251 255 253 261 270
311 311 328 297 336 264 306 239 286 268 298 253 170 113 74 94 131 183 193 158 165 176 192 192 208 205 213 220 220 219 222 227 231 233 237 241 243 242 246 250 250 257 263 268
294 297 346 351 355 359 265 293 325 241 297 335 321 52 28 55 77 91 130 116 150 172 180 184 204 211 221 226 235 240 241 239 243 247 247 248 249 250 249 251 256 259 261 260
319 282 304 337 315 324 330 330 271 265 255 107 8 71 20 55 67 66 73 61 145 176 197 192 198 220 235 237 240 252 254 256 256 252 256 260 259 258 259 258 250 252 253 256
324 296 285 311 294 292 290 289 280 260 7 52 148 64 16 63 68 61 52 59 58 109 189 186 204 216 224 236 238 241 248 254 255 257 259 261 261 259 255 247 244 246 244 245
320 298 308 320 285 294 313 309 254 270 262 250 111 92 53 82 72 66 69 71 72 76 88 106 146 202 232 246 251 248 248 252 252 255 258 249 251 243 244 242 239 238 239 242
338 295 294 285 288 292 309 304 221 257 5 92 94 112 95 90 83 82 77 75 76 74 71 69 64 51 22 327 306 259 247 226 227 245 235 238 239 234 242 241 245 241 240 242
356 322 70 67 75 81 72 68 182 104 86 82 113 104 96 83 85 70 70 67 62 63 65 64 63 57 49 30 5 322 267 239 247 259 254 249 247 242 242 246 250 250 247 242
11 64 113 51 34 69 67 71 90 98 85 85 87 84 94 89 80 63 68 64 61 56 52 48 47 45 44 45 42 31 350 287 268 270 268 243 255 246 260 253 244 259 238 242
336 357 351 352 45 51 41 48 75 93 96 91 87 86 84 77 50 45 42 50 50 46 39 36 34 34 35 37 40 44 47 38 13 284 281 264 246 244 251 257 249 238 242 236
344 353 328 306 88 42 67 65 76 87 88 89 87 76 60 38 26 22 30 43 41 40 37 35 32 31 31 31 30 30 35 38 34 24 13 301 263 252 264 264 260 254 253 232
332 340 306 350 72 120 57 92 93 76 71 87 112 75 50 30 29 31 43 40 37 37 34 32 32 34 36 29 27 27 23 25 29 28 30 30 17 327 280 258 266 246 258 266
324 346 184 96 80 84 358 141 125 96 58 77 73 53 67 66 55 60 61 51 41 38 35 34 31 31 30 29 27 27 23 19 15 14 27 35 31 19 12 351 277 262 256 261
32 17 44 74 99 76 32 150 162 166 137 97 80 59 50 38 41 48 50 45 37 32 27 27 26 26 22 26 23 18 17 15 15 18 15 13 19 29 27 15 18 3 324 294
28 13 10 44 94 53 54 149 171 132 116 78 51 47 54 51 51 51 47 39 31 21 17 14 12 9 8 11 11 8 7 5 8 7 9 10 13 8 4 20 25 15 16 11
19 59 37 69 106 83 69 87 110 117 105 61 38 43 46 46 43 37 30 24 21 18 14 13 10 5 0 353 349 349 346 347 349 351 351 353 354 357 357 357 349 338 342 1
15 31 104 90 92 95 91 94 95 88 63 50 43 43 39 29 21 14 7 360 353 351 351 349 349 351 348 346 345 344 342 339 337 334 334 334 336 336 337 337 334 332 333 327
43 81 95 105 123 112 103 98 91 84 64 53 32 16 7 4 2 359 353 348 341 336 334 333 331 329 330 330 329 328 325 322 322 323 322 321 322 322 322 320 317 317 316 315
122 137 108 94 115 128 133 115 83 47 30 1 338 339 340 339 337 336 335 334 331 330 328 326 324 323 322 321 321 320 319 317 315 313 313 313 312 310 309 309 308 305 302 300
Height
3029 3027 3023 3025 3024 3023 3022 3019 3013 3008 3012 3008 3004 3000 3000 2998 3004 3004 3007 3011 3017 3025 3033 3037 3042 3046 3050 3055 3059 3062 3065 3069 3071 3075 3079 3082 3084 3087 3089 3091 3093 3095 3097 3098
3023 3015 3017 3017 3018 3015 3013 3011 3005 3000 3003 3003 2996 2992 2990 2991 2992 2995 2998 3003 3008 3016 3022 3023 3027 3032 3037 3040 3047 3052 3057 3061 3065 3069 3073 3076 3078 3081 3083 3086 3087 3090 3091 3093
3018 3011 3011 3012 3010 3008 3002 3003 2999 2997 2994 2994 2993 2985 2981 2982 2984 2986 2990 2995 2999 3002 3008 3014 3018 3022 3026 3030 3035 3042 3048 3052 3058 3061 3062 3067 3070 3073 3077 3080 3083 3085 3086 3088
3012 3007 3004 3003 3001 3003 2996 2999 2995 2994 2992 2985 2989 2981 2973 2974 2975 2979 2984 2987 2990 2993 2998 3005 3009 3013 3016 3021 3027 3032 3038 3043 3047 3050 3054 3059 3063 3066 3072 3074 3077 3079 3080 3081
3012 3006 3003 3000 2995 2999 2993 2993 2990 2989 2988 2984 2981 2985 2966 2971 2969 2972 2974 2979 2984 2987 2991 2995 2999 3004 3008 3015 3020 3024 3029 3034 3038 3041 3047 3052 3055 3060 3064 3068 3072 3072 3074 3074
3009 3005 2999 2995 2993 2994 2992 2989 2987 2985 2983 2978 2973 2980 2965 2966 2966 2966 2969 2971 2977 2981 2983 2988 2993 2998 3001 3006 3011 3016 3021 3027 3031 3035 3040 3045 3048 3053 3057 3061 3063 3066 3067 3067
3004 3000 2997 2994 2992 2991 2990 2991 2988 2983 2980 2971 2968 2974 2969 2966 2965 2965 2965 2966 2969 2975 2980 2985 2989 2992 2995 3000 3006 3010 3015 3020 3026 3029 3033 3038 3042 3047 3049 3053 3056 3058 3060 3061
3005 2994 2994 2992 2990 2988 2987 2988 2987 2979 2969 2967 2967 2969 2969 2965 2964 2964 2965 2967 2967 2970 2976 2981 2985 2989 2991 2997 3002 3006 3010 3014 3019 3023 3026 3030 3035 3038 3041 3045 3048 3051 3053 3055
3007 2998 2993 2990 2985 2985 2983 2981 2980 2979 2972 2967 2967 2968 2968 2966 2963 2963 2962 2962 2965 2968 2972 2978 2984 2986 2989 2994 2999 3004 3007 3010 3014 3017 3020 3023 3026 3030 3033 3036 3039 3043 3046 3048
3008 3000 2993 2989 2987 2985 2982 2982 2980 2977 2972 2975 2965 2965 2973 2968 2965 2961 2961 2954 2958 2962 2968 2973 2979 2983 2987 2991 2995 2999 3001 3004 3007 3010 3012 3015 3018 3021 3026 3029 3031 3034 3036 3039
3007 3003 2993 2990 2987 2985 2983 2980 2979 2977 2974 2976 2974 2978 2977 2974 2967 2962 2956 2952 2951 2960 2966 2969 2973 2980 2984 2987 2990 2992 2993 2996 2999 3000 3001 3003 3006 3009 3012 3016 3020 3023 3026 3029
3005 3000 2993 2990 2984 2982 2982 2979 2978 2974 2973 2973 2975 2983 2979 2975 2970 2964 2959 2953 2956 2959 2965 2966 2969 2978 2980 2981 2983 2985 2985 2986 2988 2989 2988 2991 2994 2997 2999 3003 3008 3012 3016 3019
3005 3000 2992 2986 2983 2979 2976 2974 2974 2972 2970 2971 2975 2984 2983 2979 2974 2971 2968 2966 2965 2968 2968 2970 2975 2973 2975 2976 2976 2976 2976 2977 2977 2979 2981 2984 2985 2988 2991 2996 3000 3004 3007 3009
3003 3000 2996 2991 2984 2980 2973 2968 2969 2970 2969 2968 2976 2982 2984 2981 2978 2977 2974 2974 2973 2972 2972 2971 2970 2972 2973 2972 2970 2970 2971 2972 2973 2975 2977 2979 2980 2982 2985 2989 2993 2996 2998 3000
3003 2998 2995 2989 2983 2977 2972 2968 2969 2973 2974 2975 2983 2983 2984 2983 2983 2981 2980 2979 2979 2977 2976 2976 2976 2976 2974 2971 2968 2967 2967 2968 2969 2970 2972 2974 2976 2977 2980 2982 2985 2988 2989 2992
3003 3000 2996 2992 2989 2982 2978 2975 2971 2976 2984 2984 2984 2985 2988 2989 2988 2987 2986 2985 2983 2981 2981 2979 2978 2977 2975 2972 2969 2967 2966 2965 2965 2967 2968 2969 2970 2972 2973 2974 2976 2978 2979 2981
3001 2998 2996 2995 2993 2990 2987 2990 2987 2986 2988 2990 2989 2992 2992 2993 2991 2990 2988 2986 2984 2983 2982 2981 2980 2978 2976 2974 2973 2971 2967 2965 2964 2963 2963 2963 2965 2966 2968 2968 2970 2970 2971 2971
3000 2997 2995 2994 2993 2997 3002 3001 2998 2996 2995 2995 2996 2996 2996 2995 2994 2993 2991 2988 2987 2986 2985 2983 2982 2980 2978 2976 2975 2973 2971 2968 2966 2964 2962 2961 2959 2961 2962 2963 2964 2965 2964 2967
3000 2997 2995 2994 2996 3003 3003 3003 3002 3001 3002 3001 3001 3000 2999 2998 2996 2995 2992 2990 2990 2988 2987 2986 2985 2984 2981 2980 2977 2975 2974 2972 2970 2968 2964 2961 2959 2959 2958 2958 2960 2958 2960 2958
2999 2997 2995 2994 2997 3002 3005 3002 3003 3002 3004 3004 3003 3002 3002 3002 3000 2997 2995 2994 2992 2991 2990 2988 2987 2986 2985 2983 2980 2978 2977 2975 2972 2971 2967 2964 2961 2960 2958 2956 2957 2956 2958 2957
2999 2998 2996 2996 2999 3003 3002 3002 3004 3006 3013 3006 3005 3004 3003 3002 3001 2999 2997 2996 2995 2993 2991 2989 2989 2988 2986 2984 2983 2981 2979 2977 2976 2974 2971 2968 2965 2962 2959 2959 2957 2955 2955 2954
3001 3000 3000 2999 3000 3005 3001 3003 3005 3007 3006 3006 3006 3006 3005 3004 3002 2999 2998 2996 2995 2993 2992 2991 2989 2988 2987 2985 2983 2981 2980 2978 2977 2974 2972 2970 2967 2965 2963 2961 2960 2958 2956 2955
3005 3004 3002 3002 3004 3004 3004 3003 3004 3005 3006 3006 3006 3005 3005 3004 3002 3000 2999 2998 2997 2995 2994 2992 2991 2989 2987 2986 2984 2982 2980 2979 2977 2976 2974 2971 2968 2966 2964 2963 2961 2961 2960 2958
3006 3004 3004 3004 3005 3004 3006 3007 3007 3008 3008 3007 3007 3006 3005 3004 3003 3002 3000 2999 2997 2995 2994 2993 2991 2989 2988 2986 2984 2982 2980 2978 2977 2975 2973 2971 2968 2966 2965 2963 2961 2959 2957 2956
3007 3006 3005 3005 3005 3006 3007 3008 3008 3008 3008 3008 3007 3006 3005 3004 3003 3001 3000 2998 2996 2995 2993 2992 2990 2989 2987 2985 2983 2981 2980 2978 2976 2974 2972 2970 2967 2965 2964 2963 2961 2959 2957 2955
3006 3006 3006 3006 3006 3006 3008 3009 3009 3008 3009 3008 3007 3006 3005 3003 3002 3001 2999 2997 2995 2994 2992 2990 2989 2986 2984 2982 2981 2979 2977 2975 2974 2972 2970 2967 2965 2962 2961 2960 2959 2958 2956 2955